www.pogodaiklimat.ru

Погода и климат >> Архив погоды >> Канада >> Северо-Западные территории >> Моулд Бэй


ПОГОДА в Моулд Бэй

  • Прогноз погоды в Моулд Бэй
  • Монитор погоды в Моулд Бэй

АРХИВ ПОГОДЫ в Моулд Бэй

Время (UTC), дата Ветер
(напр.,м/с)
 
Видим.   Явления Облачность Т
(С)
Тd
(С)
f
(%)
Тe
(С)
Тes
(С)
Комфортность P
(гПа)
Po
(гПа)
Тmin
(С)
Tmax
(С)
R
(мм)
R24
(мм)
S
(см)
09 15.02 СВ 2 н/о н/о -41.2 -45.3 64 -51 -51 опасность
обморожения
1032.3 1030.5
12 15.02 В 2 н/о н/о -37.5 -41.3 67 -46 -46 опасность
обморожения
1033.4 1031.6 -43.6 -28.8
15 15.02 В 1 н/о н/о -36.1 -39.7 69 -38 -38 опасность
обморожения
1034.1 1032.3
18 15.02 СВ 3 н/о н/о -38.4 -42.3 66 -50 -50 опасность
обморожения
1035.0 1033.2 -43.6 -35.8
21 15.02 С 2 н/о н/о -34.8 -38.2 71 -42 -42 опасность
обморожения
1035.8 1034.0
00 16.02 З 1 н/о н/о -35.3 -38.8 70 -40 -40 опасность
обморожения
1037.6 1035.8 -42.7 -30.2
03 16.02 СВ 2 н/о н/о -36.0 -39.5 70 -43 -43 опасность
обморожения
1038.3 1036.5
06 16.02 СВ 1 н/о н/о -38.9 -42.9 66 -44 -44 опасность
обморожения
1038.9 1037.1 -42.7 -30.2
09 16.02 СВ 2 н/о н/о -42.0 -46.4 62 -50 -50 опасность
обморожения
1040.0 1038.2
12 16.02 СВ 1 н/о н/о -42.9 -47.3 62 -49 -49 опасность
обморожения
1040.8 1039.0 -43.0 -30.2
15 16.02 штиль 0 н/о н/о -42.9 -47.3 62 -43 -43 опасность
обморожения
1041.2 1039.4 0.2
18 16.02 СВ 1 н/о н/о -43.1 -47.5 62 -49 -49 опасность
обморожения
1041.5 1039.7 -44.6 -38.8 0.2
21 16.02 С 1 н/о н/о -41.9 -46.1 63 -44 -44 опасность
обморожения
1041.0 1039.2
00 17.02 штиль 0 н/о н/о -41.3 -45.6 63 -41 -41 опасность
обморожения
1041.3 1039.5 -44.6 -40.0
03 17.02 ЮЗ 1 н/о н/о -37.8 -41.7 67 -43 -43 опасность
обморожения
1040.1 1038.3
06 17.02 Ю 4 н/о н/о -32.9 -36.2 72 -45 -45 опасность
обморожения
1038.4 1036.6 -44.6 -32.5
09 17.02 Ю 5 н/о н/о -31.4 -34.5 74 -44 -44 опасность
обморожения
1037.3 1035.5
12 17.02 Ю 4 н/о н/о -32.2 -35.4 73 -44 -44 опасность
обморожения
1035.3 1033.5 -42.4 -32.5
15 17.02 Ю 2 н/о н/о -31.7 -34.8 74 -38 -38 опасность
обморожения
1032.7 1030.9
18 17.02 ЮВ 6 н/о н/о -31.0 -34.1 74 -45 -45 опасность
обморожения
1030.1 1028.4 -44.1 -30.2
21 17.02 ЮВ 1 н/о н/о -27.4 -30.1 78 -31 -31 опасность
обморожения
1027.7 1026.0
00 18.02 ЮВ 5 н/о н/о -28.4 -31.1 77 -40 -40 опасность
обморожения
1025.1 1023.4 -35.2 -27.0
03 18.02 Ю 3 н/о н/о -30.9 -33.8 76 -40 -40 опасность
обморожения
1022.2 1020.5
06 18.02 Ю 1 н/о н/о -36.7 -40.3 69 -42 -42 опасность
обморожения
1020.6 1018.9 -36.7 -27.0
09 18.02 ЮВ 2 н/о н/о -32.9 -36.2 72 -41 -41 опасность
обморожения
1018.8 1017.1
12 18.02 В 1 н/о н/о -36.6 -40.3 68 -42 -42 опасность
обморожения
1017.2 1015.5 -37.7 -27.0
15 18.02 В 1 н/о н/о -38.2 -42.0 67 -40 -40 опасность
обморожения
1016.3 1014.6
18 18.02 В 1 н/о н/о -39.0 -42.9 66 -41 -41 опасность
обморожения
1015.6 1013.9 -40.2 -30.9
21 18.02 В 1 н/о н/о -38.4 -42.2 67 -40 -40 опасность
обморожения
1014.9 1013.2
00 19.02 З 3 н/о н/о -37.4 -41.2 67 -49 -49 опасность
обморожения
1014.7 1013.0 -40.2 -35.8
03 19.02 В 2 н/о н/о -40.0 -44.1 65 -48 -48 опасность
обморожения
1013.9 1012.1
06 19.02 В 2 н/о н/о -40.2 -44.3 65 -48 -48 опасность
обморожения
1013.5 1011.7 -41.2 -30.9
09 19.02 штиль 0 н/о н/о -40.3 -44.4 65 -40 -40 опасность
обморожения
1013.4 1011.6
12 19.02 СВ 2 н/о н/о -39.3 -43.3 66 -47 -47 опасность
обморожения
1013.8 1012.1 -41.2 -30.9
15 19.02 В 1 н/о н/о -40.3 -44.5 64 -46 -46 опасность
обморожения
1014.3 1012.5
18 19.02 В 1 н/о н/о -40.0 -44.1 65 -42 -42 опасность
обморожения
1015.4 1013.6 -41.3 -37.9
21 19.02 СВ 1 н/о н/о -38.9 -42.8 66 -44 -44 опасность
обморожения
1017.0 1015.2
00 20.02 СВ 1 н/о н/о -36.6 -40.4 68 -38 -38 опасность
обморожения
1017.6 1015.8 -41.3 -36.6
03 20.02 штиль 0 н/о н/о -29.4 -32.3 76 -29 -29 1017.6 1015.9
06 20.02 СВ 1 н/о н/о -25.3 -27.7 80 -26 -26 1017.7 1016.0 -41.3 -25.3
09 20.02 З 4 н/о н/о -19.2 -21.0 86 -27 -27 1017.3 1015.6
12 20.02 З 5 н/о н/о -18.8 -20.6 86 -28 -28 1017.5 1015.8 -36.6 -25.3
15 20.02 СЗ 2 н/о н/о -20.1 -22.0 85 -26 -26 1018.2 1016.5
18 20.02 СЗ 3 н/о н/о -24.8 -27.2 80 -33 -33 опасность
обморожения
1018.7 1017.0 -41.2 -17.5
21 20.02 ЮЗ 2 н/о н/о -31.2 -34.6 72 -38 -38 опасность
обморожения
1018.5 1016.8
00 21.02 СВ 2 н/о н/о -33.9 -37.2 72 -41 -41 опасность
обморожения
1017.5 1015.8 -35.0 -18.5
03 21.02 ЮВ 2 н/о н/о -26.1 -28.5 80 -32 -32 опасность
обморожения
1014.2 1012.5
06 21.02 Ю 4 н/о н/о -21.9 -24.0 83 -31 -31 опасность
обморожения
1010.7 1009.0 -35.0 -17.5 11
09 21.02 Ю 2 н/о н/о -19.5 -21.2 86 -25 -25 1008.1 1006.4
12 21.02 ЮВ 2 н/о н/о -18.4 -20.1 86 -24 -24 1005.2 1003.5 -33.9 -17.5
15 21.02 СЗ 6 н/о н/о -21.4 -23.4 84 -32 -32 опасность
обморожения
1003.5 1001.8
18 21.02 СЗ 5 н/о н/о -29.0 -31.9 76 -41 -41 опасность
обморожения
1004.2 1002.5 -35.0 -18.4
21 21.02 С 8 н/о н/о -31.0 -34.0 75 -47 -47 опасность
обморожения
1005.5 1003.8
00 22.02 Ю 4 н/о н/о -31.6 -34.7 74 -43 -43 опасность
обморожения
1007.1 1005.4 -31.6 -18.4
03 22.02 СЗ 10 н/о н/о -32.7 -35.9 73 -51 -51 опасность
обморожения
1007.2 1005.5
06 22.02 З 6 н/о н/о -32.5 -35.7 73 -46 -46 опасность
обморожения
1009.0 1007.3 -33.0 -18.4 4

 

Местоположение метеостанции Моулд Бэй (Северо-Западные территории, Канада): широта 76.23 долгота -119.30 высота над уровнем моря 12 м.

В архиве по умолчанию представлена погода в Моулд Бэй за последнюю неделю. Архивные данные за месяц целиком и за предыдущие месяцы, начиная с января 2011 года, Вы можете получить, выбрав интересующий диапазон дат из раскрывающегося списка и нажав кнопку "Ввод!".


*Определитесь, кто Вы:
робот инопланетянин человек

Внимание! Время в таблицах - всемирное. Для получения местного времени необходимо прибавить поправку, которая равна -7 ч.

Смотрите также архив погоды в соседних городах и на ближайших метеорологических станциях:

Погода в Национальном парке Олавик (Северо-Западные территории, Канада) (234 км)
Погода в Исачсене (Нунавут, Канада) (472 км)
Погода на Острове Стефанссон (Нунавут, Канада) (488 км)
Погода в Сачс Харбор (Северо-Западные территории, Канада) (503 км)
Погода в Маниберрисе (Альберта, Канада) (504 км)
Погода в Сарнии (Онтарио, Канада) (534 км)
Погода в Аэропорту Холман (Северо-Западные территории, Канада) (611 км)
Погода в Ресольют Бэй (Нунавут, Канада) (693 км)
Погода в Аэропорту Ресольют Бэй (Нунавут, Канада) (694 км)
Погода на Кабо-Парри (Северо-Западные территории, Канада) (695 км)

Пояснения к столбцам:

Ветер - указаны скорость ветра в м/с - средняя за 10 мин, порывы в срок и между сроками (в фигурных скобках) и направление, откуда дует ветер: С - северный, СВ - северо-восточный, В - восточный, ЮВ - юго-восточный, Ю - южный, ЮЗ - юго-западный, З - западный, СЗ - северо-западный.
Видимость - горизонтальная дальность видимости в метрах или километрах. При видимости от 1 до 10 км при отсутствии осадков обычно наблюдается дымка, при ухудшении видимости до 1 км и менее - туман. В сухую погоду видимость может ухудшаться дымом, пылью или мглою.
Явления - указаны атмосферные явления, наблюдавшиеся в срок или в последний час перед сроком; фигурными скобками обозначены явления, наблюдавшиеся между сроками (за 1-3 часа до срока); квадратными скобками обозначены град или гололедные отложения с указанием их диаметра в мм.
Облачность - указаны через наклонную черту общая и нижняя облачность в баллах и высота нижней границы облаков в метрах; квадратными скобками обозначены формы облаков: Ci - перистые, Cs - перисто-слоистые, Cc - перисто-кучевые, Ac - высококучевые, As - высокослоистые, Sc - слоисто-кучевые, Ns - слоисто-дождевые, Cu - кучевые, Cb - кучево-дождевые. Подробнее классификацию облаков см. в Атласе облаков (PDF).
T - Температура воздуха - температура, измеренная на высоте 2 м над землей.
Td - Температура точки росы - температура, при понижении до которой содержащийся в воздухе водяной пар достигнет насыщения.
f - Относительная влажность воздуха - влажноcть воздуха, измеренная на высоте 2 м над землей.
Te - Эффективная температура - температура, которую ощущает одетый по сезону человек в тени. Характеристика душности погоды. При расчете учитывается влияние влажности воздуха и скорости ветра на теплоощущения человека.
Tes - Эффективная температура на солнце - температура, которую ощущает человек, с поправкой на солнечный нагрев. Характеристика знойности погоды. Зависит от высоты солнца над горизонтом, облачности и скорости ветра. Ночью, в пасмурную погоду, а также при ветре 12 м/с и более поправка равна нулю.
P - Атмосферное давление - приведенное к уровню моря атмосферное давление.
Po - Атмосферное давление - измеренное на уровне метеостанции атмосферное давление.
Tmin - Минимальная температура - минимум температуры воздуха на высоте 2 м над землей.
Tmax - Максимальная температура - максимум температуры воздуха на высоте 2 м над землей.
R - Количество осадков - Количество выпавших осадков за период времени, мм. При наведении курсора мыши на число - период времени, за который выпало указанное количество осадков.
R24 - Количество осадков - Количество выпавших осадков за 24 часа, мм.
S - Снежный покров - Высота снежного покрова, см. При наведении курсора мыши на число - состояние снежного покрова и степень покрытия местности в баллах.